Pierre, SD

10:05 AM CST on February 20, 2018 (GMT -0600)
Pierre Regional

Weather History for KPIR - August, 2013

Change the Weather History Date:

Saturday, August 24, 2013

  Actual Average Record
Temperature  
Mean Temperature 87 °F 72 °F  
Max Temperature 102 °F 86 °F 107 °F (2000)
Min Temperature 71 °F 58 °F 42 °F (1934)
Degree Days  
Heating Degree Days 0 1  
Month to date heating degree days 0 4  
Since 1 June heating degree days 69 63  
Since 1 July heating degree days 9 10  
Cooling Degree Days 22 8  
Month to date cooling degree days 167 235  
Year to date cooling degree days 574 728  
Since 1 June cooling degree days 552 696  
Growing Degree Days 36 (Base 50)    
Moisture  
Dew Point 65 °F    
Average Humidity 57    
Maximum Humidity 93    
Minimum Humidity 21    
Precipitation  
Precipitation 0.00 in 0.05 in 2.12 in (1903)
Month to date precipitation 2.47 1.45  
Year to date precipitation 16.87 14.83  
Sea Level Pressure  
Sea Level Pressure 29.73 in    
Wind  
Wind Speed 12 mph (SSE)    
Max Wind Speed 21 mph    
Max Gust Speed 26 mph    
Visibility 10 miles    
Events Thunderstorm    
T = Trace of Precipitation, MM = Missing Value Source: NWS Daily Summary

Daily Weather History Graph

Daily Weather History Graph

Search for Another Location

Airport or City:

Trip Planner

Search our weather history database for the weather conditions in past years. The results will help you decide how hot, cold, wet, or windy it might be!

Date:

Astronomy

Aug. 24, 2013 Rise Set
Actual Time 6:54 AM CDT 8:30 PM CDT
Civil Twilight 6:24 AM CDT 9:01 PM CDT
Nautical Twilight 5:47 AM CDT 9:38 PM CDT
Astronomical Twilight 5:07 AM CDT 10:18 PM CDT
Moon 10:13 PM CDT (8/24) 11:08 AM CDT (8/24)
Length of Visible Light 14h 37m
Length of Day
13h 36m
Waning Gibbous, 84% of the Moon is Illuminated
Aug 24
Waning Gibbous
Aug 28
Last Quarter
Sep 5
New
Sep 12
First Quarter
Sep 19
Full

Hourly Weather History & Observations

Time (CDT) Temp. Heat Index Dew Point Humidity Pressure Visibility Wind Dir Wind Speed Gust Speed Precip Events Conditions
12:53 AM 75.0 °F - 68.0 °F 79% 29.78 in 10.0 mi SE 9.2 mph - N/A   Clear
1:53 AM 73.9 °F - 69.1 °F 85% 29.77 in 10.0 mi SE 12.7 mph - N/A   Clear
2:53 AM 73.0 °F - 69.1 °F 87% 29.75 in 10.0 mi SE 15.0 mph - N/A   Clear
3:53 AM 73.0 °F - 69.1 °F 87% 29.75 in 10.0 mi ESE 10.4 mph - N/A   Clear
4:51 AM 73.4 °F - 69.8 °F 88% 29.79 in 10.0 mi ESE 11.5 mph - N/A Thunderstorm Mostly Cloudy
4:53 AM 73.0 °F - 69.1 °F 87% 29.75 in 10.0 mi ESE 11.5 mph - N/A Thunderstorm Mostly Cloudy
5:07 AM 73.4 °F - 69.8 °F 88% 29.79 in 10.0 mi SE 10.4 mph - N/A   Mostly Cloudy
5:53 AM 72.0 °F - 69.1 °F 91% 29.73 in 10.0 mi SE 11.5 mph - N/A   Clear
6:53 AM 72.0 °F - 69.1 °F 91% 29.72 in 9.0 mi ESE 11.5 mph - N/A   Clear
7:53 AM 73.0 °F - 68.0 °F 84% 29.73 in 10.0 mi SE 13.8 mph - N/A   Clear
8:53 AM 75.9 °F - 66.9 °F 74% 29.74 in 10.0 mi SSE 10.4 mph - N/A   Clear
9:53 AM 81.0 °F 83.3 °F 66.9 °F 62% 29.73 in 10.0 mi South 8.1 mph - N/A   Clear
10:53 AM 84.9 °F 87.1 °F 66.0 °F 53% 29.72 in 10.0 mi South 6.9 mph - N/A   Clear
11:53 AM 90.0 °F 92.8 °F 66.9 °F 46% 29.73 in 10.0 mi South 11.5 mph - N/A   Clear
12:53 PM 93.9 °F 95.6 °F 64.0 °F 37% 29.72 in 10.0 mi SSW 16.1 mph 21.9 mph N/A   Clear
1:53 PM 97.0 °F 98.3 °F 63.0 °F 32% 29.71 in 10.0 mi SW 17.3 mph 20.7 mph N/A   Clear
2:53 PM 100.0 °F 99.7 °F 57.9 °F 25% 29.71 in 10.0 mi SSW 15.0 mph 20.7 mph N/A   Clear
3:53 PM 100.9 °F 99.1 °F 54.0 °F 21% 29.70 in 10.0 mi SW 17.3 mph 25.3 mph N/A   Clear
4:53 PM 100.9 °F 100.0 °F 57.0 °F 23% 29.70 in 10.0 mi SSW 15.0 mph 24.2 mph N/A   Clear
5:53 PM 100.0 °F 98.8 °F 55.9 °F 23% 29.70 in 10.0 mi South 16.1 mph - N/A   Clear
6:53 PM 98.1 °F 96.8 °F 57.0 °F 25% 29.70 in 10.0 mi SSW 15.0 mph 23.0 mph N/A   Clear
7:53 PM 93.0 °F 94.2 °F 63.0 °F 37% 29.71 in 10.0 mi South 4.6 mph - N/A   Clear
8:53 PM 86.0 °F 87.3 °F 64.0 °F 48% 29.73 in 10.0 mi SSE 8.1 mph - N/A   Clear
9:53 PM 82.9 °F 85.0 °F 66.0 °F 56% 29.75 in 10.0 mi SE 5.8 mph - N/A   Clear
10:53 PM 80.1 °F 82.3 °F 66.9 °F 64% 29.75 in 10.0 mi East 8.1 mph - N/A   Clear
11:53 PM 79.0 °F - 68.0 °F 69% 29.75 in 10.0 mi ESE 8.1 mph - N/A   Clear